Miscellaneous Local Product
Issued by NWS Hastings, NE

Home | Current Version | Previous Version | Graphics & Text | Print | Product List | Glossary On
Versions: 1 2 3 4 5 6 7 8 9 10 11 12 13 14 15 16 17 18 19 20 21 22 23 24 25 26 27 28 29 30 31 32 33 34 35 36 37 38 39 40 41 42 43 44 45 46 47 48 49 50
000
AXUS43 KGID 251502
MISGRI

GID CWA HOURLY WEATHER ROUNDUP
NATIONAL WEATHER SERVICE HASTINGS NE
1000 AM CDT THU AUG 25 2016

NOTE: "FAIR" INDICATES FEW OR NO CLOUDS BELOW 12,000 FEET WITH NO
SIGNIFICANT WEATHER AND/OR OBSTRUCTIONS TO VISIBILITY.

...SOUTH CENTRAL NEBRASKA...

CITY           SKY/WX    TMP DP  RH WIND       PRES   REMARKS
GRAND ISLAND   CLOUDY    65  55  70 N5        30.19R
HASTINGS       CLOUDY    64  57  78 NW6       30.20R
KEARNEY        CLOUDY    64  54  68 N8        30.20R
ORD            CLOUDY    63  50  62 N12       30.20R
YORK           CLOUDY    63  59  88 NW3       30.17R
AURORA         CLOUDY    63  60  89 CALM      30.18R
LEXINGTON      CLOUDY    64  53  67 NE6       30.23R
HOLDREGE       MOSUNNY   64  56  77 CALM      30.21R
HEBRON         CLOUDY    63  59  86 CALM      30.15R

...NEBRASKA PANHANDLE...

CITY           SKY/WX    TMP DP  RH WIND       PRES   REMARKS
CHADRON        LGT RAIN  53  46  77 CALM      30.33R
ALLIANCE       PTSUNNY   57  42  57 NE14G23   30.31R
SCOTTSBLUFF    CLOUDY    58  44  60 NE10      30.33R
SIDNEY         SUNNY     59  47  64 E12       30.30R

...WESTERN AND NORTH CENTRAL NEBRASKA...

CITY           SKY/WX    TMP DP  RH WIND       PRES   REMARKS
VALENTINE      CLOUDY    60  45  57 NW12G22   30.27R
AINSWORTH      CLOUDY    58  49  71 N14G20    30.25R
ONEILL         CLOUDY    62  51  66 NW9       30.23R
BROKEN BOW     CLOUDY    62  48  60 N8        30.22R
IMPERIAL       SUNNY     64  49  57 NE14      30.25R
NORTH PLATTE   MOSUNNY   65  48  54 NE16      30.23R
MCCOOK         MOSUNNY   70  49  47 NE7       30.22R

...EASTERN NEBRASKA...

CITY           SKY/WX    TMP DP  RH WIND       PRES   REMARKS
NORFOLK        CLOUDY    61  55  81 NW6       30.16S
SO SIOUX CITY  CLOUDY    63  58  83 NW7       30.14R
TEKAMAH        CLOUDY    62  60  93 CALM      30.14R
COLUMBUS       PTSUNNY   63  52  67 NW6       30.16S
ALBION         CLOUDY    63  53  70 N9        30.18R
OMAHA EPPLEY   CLOUDY    62  58  86 CALM      30.14R
OFFUTT AFB     CLOUDY    63  62  96 CALM      30.13S
MILLARD        CLOUDY    64  59  84 CALM      30.13F
LINCOLN        LGT RAIN  63  59  87 N6        30.14S
NEBRASKA CITY  LGT RAIN  63  63 100 NE8       30.12F
BEATRICE       CLOUDY    62  59  89 E8        30.10F
FALLS CITY     RAIN      64  63  96 NE7       30.11S

...NORTHERN KANSAS...

CITY           SKY/WX    TMP DP  RH WIND       PRES   REMARKS
GOODLAND       CLOUDY    60  50  69 CALM      30.25R
HILL CITY      CLOUDY    62  57  83 NE5       30.20R
NORTON         MOSUNNY   63  52  67 SW3       30.20S
SMITH CENTER   CLOUDY    61  57  88 NW8       30.19R
BELOIT         CLOUDY    63  57  82 N7        30.14S
HAYS           PTSUNNY   64  50  59 NE9       30.18S
RUSSELL        CLOUDY    64  57  78 N9        30.15S
CONCORDIA      CLOUDY    64  58  80 N6        30.14R
SALINA         CLOUDY    70  63  78 N12       30.12R
TOPEKA         CLOUDY    73  70  90 N7        30.07S



USA.gov is the U.S. government's official web portal to all federal, state and local government web resources and services.